Regional Weather Roundup
Issued by NWS

Home | Current Version | Previous Version | Graphics & Text | Print | Product List | Glossary On
Versions: 1 2 3 4 5 6 7 8 9 10 11 12 13 14 15 16 17 18 19 20 21 22 23 24 25 26 27 28 29 30 31 32 33 34 35 36 37 38 39 40 41 42 43 44 45 46 47 48 49 50
000
ASUS45 KPSR 220400
RWRAZ

PRELIMINARY ARIZONA REGIONAL HOURLY WEATHER ROUNDUP
NATIONAL WEATHER SERVICE PHOENIX AZ
900 PM MST SUN SEP 21 2014

NOTE: FAIR INDICATES FEW OR NO CLOUDS BELOW 12,000 FEET WITH NO
SIGNIFICANT WEATHER AND/OR OBSTRUCTIONS TO VISIBILITY.

AZZ001>003-036-220500-
NORTHWEST ARIZONA

CITY           SKY/WX    TMP DP  RH WIND       PRES   REMARKS
KINGMAN        CLEAR     70  38  31 S9        30.06R
$$

AZZ004>008-015-016-018-220500-
NORTH CENTRAL ARIZONA

CITY           SKY/WX    TMP DP  RH WIND       PRES   REMARKS
GRAND CANYON   CLEAR     51  45  79 CALM      30.28R
PRESCOTT       CLEAR     66  46  48 S7        30.19R
FLAGSTAFF      CLEAR     55  48  77 SW12      30.32R
PAYSON         MOCLDY    70  54  56 CALM      30.21R
PAGE           CLEAR     73  56  54 CALM      30.10R
$$

AZZ009>014-017-220500-
NORTHEAST ARIZONA

CITY           SKY/WX    TMP DP  RH WIND       PRES   REMARKS
WINSLOW        NOT AVBL
SAINT JOHNS    MOCLDY    66  58  75 NE6       30.23R
WINDOW ROCK    MOCLDY    60  56  86 E3        30.32S
SHOW LOW       PTCLDY    59  57  94 SW6       30.30R
$$

AZZ023-220500-
GREATER PHOENIX AREA

CITY           SKY/WX    TMP DP  RH WIND       PRES   REMARKS
PHOENIX        CLEAR     94  52  24 N5        29.88R
DEER VALLEY    CLEAR     87  53  31 NE5       29.91R
SCOTTSDALE     CLEAR     89  55  31 NE5       29.92R
MESA-GATEWAY   PTCLDY    91  57  31 VRB3      29.93R
CHANDLER       PTCLDY    90  55  31 CALM      29.90R
$$

AZZ027-028-220500-
SOUTHWEST MARICOPA COUNTY AND PINAL COUNTY

CITY           SKY/WX    TMP DP  RH WIND       PRES   REMARKS
CASA GRANDE    CLEAR     86  54  32 CALM      29.92S
$$

AZZ503-504-507>509-220500-
SOUTHEAST ARIZONA

CITY           SKY/WX    TMP DP  RH WIND       PRES   REMARKS
TUCSON         CLEAR     84  63  49 SE7       30.03R
DAVIS-MONTHAN  CLEAR     81  65  57 SE6       30.01R
NOGALES        LGT RAIN  72  68  87 E7        30.13R
SIERRA VISTA   CLOUDY    68  62  81 S13       30.20R
DOUGLAS        LGT RAIN  68  64  88 CALM      30.19R
SAFFORD        CLOUDY    78  67  68 CALM      30.06R
$$

AZZ020-021-025-026-031-220500-
SOUTHWEST ARIZONA

CITY           SKY/WX    TMP DP  RH WIND       PRES   REMARKS
YUMA           NOT AVBL
$$

CAZ031-033-041-043-047-048-061-220500-
SOUTHERN CALIFORNIA

CITY           SKY/WX    TMP DP  RH WIND       PRES   REMARKS
DOWNTOWN L.A.  CLEAR     68  60  75 CALM      29.94R
L.A. AIRPORT   PTCLDY    68  63  84 W13       29.95R
SAN DIEGO      PTCLDY    72  62  71 N9        29.95S
BURBANK        CLEAR     70  58  65 VRB3      29.95R
ONTARIO        CLEAR     71  58  63 W7        29.96R
RIVERSIDE      CLEAR     71  59  65 W6        29.96R
PALM SPRINGS   CLEAR     90  49  24 NW13      29.85R
EL CENTRO NAS  CLEAR     85  49  28 SW12      29.79R
IMPERIAL       CLEAR     89  46  22 CALM      29.78R
BLYTHE         CLEAR     91  40  16 SW8       29.81R
$$

NVZ020-UTZ003-220500-
SOUTHERN NEVADA-UTAH

CITY           SKY/WX    TMP DP  RH WIND       PRES   REMARKS
LAS VEGAS      NOT AVBL
SALT LAKE CITY MOCLDY    64  57  78 W3        30.13F
$$

NMZ009-TXZ055-220500-
NEW MEXICO-WEST TEXAS

CITY           SKY/WX    TMP DP  RH WIND       PRES   REMARKS
ALBUQUERQUE    MOCLDY    71  54  54 SE14      30.29R
EL PASO        CLOUDY    74  62  66 NE13      30.17R
$$


........................KEY........................
SKY/WX - SKY CONDITION/WEATHER
TMP    - TEMPERATURE IN FAHRENHEIT
DP     - DEW POINT IN FAHRENHEIT
RH     - RELATIVE HUMIDITY IN PERCENT
WIND   - DIRECTION AND SPEED IN MILES PER HOUR (MPH)
VRB    - VARIABLE WIND DIRECTION
PRES   - MEAN SEA LEVEL PRESSURE IN INCHES OF MERCURY
         F - FALLING PRESSURE   R - RISING PRESSURE
         S - STEADY PRESSURE
VSB    - VISIBILITY IN MILES
HX     - HEAT INDEX IN FAHRENHEIT
WCI    - WIND CHILL INDEX IN FAHRENHEIT
TC     - TEMPERATURE IN CELSIUS WHICH IS ALSO KNOWN AS
         TEMPERATURE IN CENTIGRADE
AFB    - AIR FORCE BASE
         LUKE AFB IS LUKE AIR FORCE BASE
         DAVIS-MONTHAN IS DAVIS-MONTHAN AIR FORCE BASE
NAS    - NAVAL AIR STATION
         EL CENTRO NAS IS EL CENTRO NAVAL AIR STATION
N/A    - NOT AVAILABLE


USA.gov is the U.S. government's official web portal to all federal, state and local government web resources and services.